COSMOS 1564

Satellite information

Favourite Embed

Satellite Type and Status

PAYLOADIN ORBIT

Key statistics

Satellite COSMOS 1564 at a glance.

Uptime

15079

Days in orbit

Revolutions

≈ 12.5

Per day

Orbit

LEO

Low Earth Orbit

Inclination

74.0

Latest

Satellite identification and parameters

Extended collection of information and parameters for COSMOS 1564.

Object identification

Identified? True

Debris? False

Object name: COSMOS 1564

International designator: 1984-052F

Object number (NORAD): 15003

Object ID (CCSDS): 15003

Country: COMMONWEALTH OF INDEPENDENT STATES (CIS)

Current information (Y/N): Y

RCS size: MEDIUM

Orbital parameters

Period: 114.871 minutes

Inclination: 74.0127 deg

SMA: 7827.695 km

Apoapsis: 1475.253 km

Periapsis: 1423.867 km

RAAN: 195.034 deg

Eccentricy: 0.00328234

Argument of periapsis: 11.3964 deg

Mean anomaly: 108.2271 deg

Mean motion: 12.53579548 rev/day

Mean motion (dot): -0.00000022 rev/day2

B* drag term: -0.000038254776 1/REarth

Two-line elements (TLE)

Creation date: Sept. 8, 2025, 6:18 p.m.

Reference frame: TEME

Reference center: EARTH

Epoch: Sept. 8, 2025, 1:02 p.m. UTC

TLE line 0: 0 COSMOS 1564

TLE line 1: 1 15003U 84052F 25251.54310365 -.00000022 00000-0 -38255-4 0 9993

TLE line 2: 2 15003 74.0127 195.0340 0032823 11.3964 108.2271 12.53579548888976

Live tracking on map

Real-time ground track for satellite COSMOS 1564.

In-orbit conjunctions

There are no conjunctions computed for COSMOS 1564, at the moment. Check back to stay up to date, as we update our databases every day.

Go to all conjunctions

Associated space launch

Military communications satellites

COSMOS 1564 was lifted into orbit during the mission ‘Kosmos-3M | Strela-1M 281-288’, on board a Kosmos-3M space rocket.

The launch took place on May 28, 1984, 9:52 p.m. from 132/2.

For more information about the launch, click the button.

Launch to space Kosmos-3M | Strela-1M 281-288
Kosmos-3M | Strela-1M 281-288

Agency: N/A

Status: Launch Successful

Launch date: May 28, 1984, 9:52 p.m. UTC

Rocket: Kosmos-3M

Launch pad: 132/2

Location: Plesetsk Cosmodrome, Russian Federation

...

Latest news about this satellite

There are no fresh news available about this satellite. Check back as we update our databases every day.


Newsletter sign-up

Weekly statistics, charts and insights to help you stay on top of the space industry.